Weather History for CYZR - March, 2013

Change the Weather History Date:

Sunday, March 10, 2013

  Actual Average Record
Temperature  
Mean Temperature 38 °F -  
Max Temperature 53 °F 40 °F 63 °F (1977)
Min Temperature 23 °F 24 °F -9 °F (2014)
Degree Days  
Heating Degree Days 27    
Moisture  
Dew Point 35 °F    
Average Humidity 67    
Maximum Humidity 88    
Minimum Humidity 51    
Precipitation  
Precipitation 0.00 in - - ()
Sea Level Pressure  
Sea Level Pressure 30.02 in    
Wind  
Wind Speed 9 mph ()    
Max Wind Speed 20 mph    
Max Gust Speed 29 mph    
Visibility 9.0 miles    
Events      
Averages and records for this station are not official NWS values.
T = Trace of Precipitation, MM = Missing Value Source: Averaged Metar Reports

Daily Weather History Graph

Daily Weather History Graph

Search for Another Location

Airport or City:

Trip Planner

Search our weather history database for the weather conditions in past years. The results will help you decide how hot, cold, wet, or windy it might be!

Date:

Astronomy

Mar. 10, 2013 Rise Set
Actual Time 7:49 AM EDT 7:29 PM EDT
Civil Twilight 7:21 AM EDT 7:58 PM EDT
Nautical Twilight 6:48 AM EDT 8:31 PM EDT
Astronomical Twilight 6:15 AM EDT 9:04 PM EDT
Moon 6:49 AM EDT (3/10) 6:36 PM EDT (3/10)
Length of Visible Light 12h 36m
Length of Day
11h 40m
Waning Crescent, 2% of the Moon is Illuminated
Mar 10
Waning Crescent
Mar 11
New
Mar 19
First Quarter
Mar 27
Full
Apr 3
Last Quarter

Hourly Weather History & Observations

Time (EDT) Temp. Windchill Dew Point Humidity Pressure Visibility Wind Dir Wind Speed Gust Speed Precip Events Conditions
12:00 AM 37.4 °F 28.9 °F 32.0 °F 81% 30.08 in 9.0 mi SSE 13.8 mph - N/A   Overcast
1:00 AM 26 °F - 22 °F 81% 30.48 in - SE 2.3 mph - -  
1:00 AM 39.2 °F 31.2 °F 32.0 °F 75% 30.06 in 9.0 mi SSE 13.8 mph - N/A   Overcast
3:00 AM 41.0 °F 33.9 °F 32.0 °F 70% 30.05 in 9.0 mi SSE 12.7 mph - N/A   Overcast
4:00 AM 41.0 °F 35.8 °F 32.0 °F 70% 30.03 in 9.0 mi South 8.1 mph - N/A   Overcast
6:00 AM 41.0 °F 34.3 °F 32.0 °F 70% 29.99 in 9.0 mi South 11.5 mph - N/A   Mostly Cloudy
7:00 AM 41.0 °F 35.2 °F 30.2 °F 65% 29.99 in 9.0 mi South 9.2 mph - N/A   Overcast
8:00 AM 24 °F - 22 °F 88% 30.48 in - South 2.3 mph - -  
8:00 AM 42.8 °F 37.0 °F 32.0 °F 66% 29.99 in 9.0 mi South 10.4 mph - N/A   Overcast
9:00 AM 44.6 °F 38.8 °F 33.8 °F 66% 29.98 in 9.0 mi South 11.5 mph - N/A   Overcast
10:00 AM 46.4 °F 40.4 °F 33.8 °F 62% 29.99 in 9.0 mi SSW 13.8 mph - N/A   Overcast
11:00 AM 51.8 °F - 37.4 °F 58% 29.97 in 9.0 mi South 13.8 mph - N/A   Partly Cloudy
12:00 PM 55.4 °F - 39.2 °F 54% 29.95 in 9.0 mi SSW 12.7 mph - N/A   Clear
1:00 PM 57.2 °F - 41.0 °F 55% 29.95 in 9.0 mi SSW 19.6 mph - N/A   Overcast
2:00 PM 30 °F - 25 °F 75% 30.42 in - SSE 3.5 mph - -  
2:00 PM 57.2 °F - 39.2 °F 51% 29.93 in 9.0 mi SSW 15.0 mph 23.0 mph N/A   Mostly Cloudy
3:00 PM 59.0 °F - 41.0 °F 51% 29.91 in 9.0 mi SSW 17.3 mph 28.8 mph N/A   Mostly Cloudy
4:00 PM 59.0 °F - 41.0 °F 51% 29.91 in 9.0 mi SSW 12.7 mph 19.6 mph N/A   Overcast
5:00 PM 57.2 °F - 42.8 °F 59% 29.91 in 9.0 mi SSW 13.8 mph - N/A   Mostly Cloudy
6:00 PM 57.2 °F - 44.6 °F 63% 29.89 in 9.0 mi South 9.2 mph - N/A   Mostly Cloudy
7:00 PM 55.4 °F - 44.6 °F 67% 29.91 in 9.0 mi South 6.9 mph - N/A   Mostly Cloudy
8:00 PM 27 °F - 24 °F 86% 30.33 in - SE 5.8 mph - -  
8:00 PM 53.6 °F - 42.8 °F 67% 29.90 in 9.0 mi SSE 4.6 mph - N/A   Mostly Cloudy
9:00 PM 50.0 °F - 42.8 °F 76% 29.87 in 9.0 mi SE 10.4 mph - N/A   Mostly Cloudy
10:00 PM 48.2 °F - 41.0 °F 76% 29.88 in 9.0 mi SSE 8.1 mph - N/A   Mostly Cloudy
11:00 PM 48.2 °F - 39.2 °F 71% 29.87 in 9.0 mi South 5.8 mph - N/A   Overcast
12:00 AM 48.2 °F - 37.4 °F 66% 29.82 in 9.0 mi SE 11.5 mph - N/A   Overcast